This demonstration page uses our WeatherBlox Daily Observations layout. Learn more.

Left ArrowRight Arrow

39.92423, -83.80882

Hourly Observations for June 18, 2015

Temp ( °F °C ) Dew Point ( °F °C ) Humidity (%) Winds ( mph kmh ) Pressure ( in mb ) Visibility ( mi km ) Precip ( " mm )
12:56 am 00:56 Mostly Clear 72 22.2 72 22.2 100 100 SSW 9 15 30.03 1017 7 11.26538 0 0
1:56 am 01:56 Cloudy 72 22.2 72 22.2 100 100 SW 8 13 30.02 1017 7 11.26538 0 0
2:56 am 02:56 Mostly Clear 72 22.2 72 22.2 100 100 SW 8 13 30.01 1016 7 11.26538 0 0
3:56 am 03:56 Mostly Cloudy 72 22.2 72 22.2 100 100 SW 10 17 30.01 1016 7 11.26538 0 0
4:56 am 04:56 Partly Cloudy with Mist and Fog 71 21.6 71 21.6 100 100 SW 9 15 30.01 1016 5 8.0467 0 0
5:16 am 05:16 Mostly Cloudy with Mist and Fog 72 22 72 22 100 100 SW 9 15 30 1016 5 8.0467 0 0
5:29 am 05:29 Cloudy with Mist and Fog 72 22 72 22 100 100 SW 9 15 30 1016 5 8.0467 0 0
5:48 am 05:48 Cloudy with Mist and Fog 72 22 72 22 100 100 WSW 9 15 30 1016 6 9.65604 0 0
5:56 am 05:56 Cloudy with Mist and Fog 72 22.2 72 22.2 100 100 WSW 10 17 30.01 1016 6 9.65604 0 0
6:04 am 06:04 Cloudy with Mist and Fog 72 22 72 22 100 100 WSW 8 13 30 1016 6 9.65604 0 0
6:23 am 06:23 Cloudy with Mist and Fog 72 22 72 22 100 100 W 10 17 30 1016 6 9.65604 0 0
6:31 am 06:31 Mostly Cloudy with Mist and Fog 72 22 72 22 100 100 WSW 10 17 30 1016 5 8.0467 0 0
6:56 am 06:56 Cloudy with Mist and Fog 73 22.7 73 22.7 100 100 W 12 19 30.02 1017 5 8.0467 0 0
7:09 am 07:09 Mostly Cloudy with Mist and Fog 73 23 73 23 100 100 WSW 10 17 30.03 1017 5 8.0467 0 0
7:27 am 07:27 Mostly Cloudy with Mist and Fog 73 23 73 23 100 100 W 10 17 30.03 1017 5 8.0467 0 0
7:45 am 07:45 Mostly Cloudy with Mist and Fog 73 23 73 23 100 100 WSW 13 20 30.03 1017 6 9.65604 0 0
7:56 am 07:56 Partly Cloudy with Mist and Fog 73 22.7 73 22.7 100 100 WSW 12 19 30.02 1017 6 9.65604 0 0
8:56 am 08:56 Mostly Cloudy with Mist and Fog 75 23.8 73 22.7 94 94 WSW 14 22 30.03 1017 6 9.65604 0 0
9:15 am 09:15 Partly Cloudy with Mist and Fog 75 24 73 23 94 94 WSW 14 22 30.03 1017 5 8.0467 0 0
9:56 am 09:56 Hazy 77 25 72 22.2 85 85 W 12 19 30.04 1017 6 9.65604 0 0
10:39 am 10:39 Mostly Cloudy with Haze 79 26 72 22 79 79 W 15 24 30 1016 6 9.65604 0 0
10:56 am 10:56 Mostly Cloudy 78 25.5 72 22.2 82 82 WSW 14 22 30.04 1017 7 11.26538 0 0
11:56 am 11:56 Mostly Cloudy 81 27.2 73 22.7 76 76 W 15 24 30.04 1017 7 11.26538 0 0
12:05 pm 12:05 Partly Cloudy 82 28 73 23 74 74 W 15 24 30 1016 7 11.26538 0 0
12:56 pm 12:56 Partly Cloudy 83 28.3 73 22.7 72 72 WSW 12 19 30.03 1017 7 11.26538 0 0
1:56 pm 13:56 Partly Cloudy 84 28.8 73 22.7 70 70 WSW 12 19 30.01 1016 7 11.26538 0 0
2:56 pm 14:56 Hazy 86 30 72 22.2 63 63 W 15 24 29.99 1016 6 9.65604 0 0
3:56 pm 15:56 Hazy 87 30.5 71 21.6 59 59 WSW 15 24 29.98 1015 6 9.65604 0 0
4:56 pm 16:56 Hazy 87 30.5 72 22.2 61 61 WSW 12 19 29.95 1014 6 9.65604 0 0
5:42 pm 17:42 Partly Cloudy with Nearby Thunderstorms 82 28 73 23 74 74 SSW 10 17 29.94 1014 5 8.0467 0 0
5:56 pm 17:56 Mostly Cloudy with Heavy Thunderstorms 74 23.3 70 21.1 88 88 SW 14 22 29.98 1015 0.5 0.80467 0.11 2.794
6:04 pm 18:04 Mostly Cloudy with Light Thunderstorms 72 22 70 21 94 94 WSW 10 17 30 1016 0.75 1.207005 0.01 0.254
6:07 pm 18:07 Mostly Cloudy with Light Thunderstorms 72 22 70 21 94 94 WSW 9 15 30 1016 1.25 2.011675 0.02 0.508
6:10 pm 18:10 Mostly Cloudy with Light Thunderstorms 72 22 70 21 94 94 WSW 9 15 30 1016 1.75 2.816345 0.03 0.762
6:18 pm 18:18 Mostly Cloudy with Mist and Fog 72 22 68 20 88 88 WSW 9 15 29.97 1015 2 3.21868 0.04 1.016
6:26 pm 18:26 Mostly Cloudy with Light Rain 72 22 70 21 94 94 SSW 6 9 29.97 1015 5 8.0467 0.04 1.016
6:56 pm 18:56 Sunny 72 22.2 69 20.5 90 90 SW 7 11 30.01 1016 7 11.26538 0.04 1.016
7:56 pm 19:56 Mostly Cloudy with Light Rain 71 21.6 70 21.1 97 97 SW 6 9 30.01 1016 6 9.65604 0.01 0.254
8:56 pm 20:56 Sunny with Mist and Fog 70 21.1 69 20.5 96 96 SSW 8 13 30.02 1017 5 8.0467 0 0.0254
9:56 pm 21:56 Partly Cloudy 70 21.1 69 20.5 96 96 SW 13 20 30.04 1017 8 12.87472 0 0
10:56 pm 22:56 Clear 70 21.1 70 21.1 100 100 SW 10 17 30.04 1017 7 11.26538 0 0
11:56 pm 23:56 Clear with Mist and Fog 70 21.1 70 21.1 100 100 SW 7 11 30.02 1017 6 9.65604 0 0

Powered by AerisWeather